AVA1408 SKRG-KMIA

Flight info

Callsign AVA1408
Flight time N/A
Altitude 39000
Route BUTAL3A BUTAL UP778 CTG UM779 ZEUSS VIICE2
Aircraft A20N/M-SDE2E3FGHIRWXY/LB1

Departure

Time 2026-05-09 23:28
Airport Jose Maria Córdova International Airport (SKRG)

Arrival

Time N/A
Airport Miami International Airport (KMIA)
Time Latitude Longitude Altitude Speed Heading
2026-05-09 23:08 6.16954 -75.42838 7031 ft 0 kts 348°
2026-05-09 23:19 6.16948 -75.42837 7031 ft 2 kts 349°
2026-05-09 23:20 6.16932 -75.42834 7029 ft 2 kts
2026-05-09 23:21 6.16902 -75.42841 7028 ft 2 kts 85°
2026-05-09 23:21 6.16902 -75.42844 7028 ft 0 kts 77°
2026-05-09 23:23 6.16903 -75.42840 7028 ft 2 kts 77°
2026-05-09 23:23 6.16909 -75.42812 7030 ft 6 kts 77°
2026-05-09 23:23 6.16927 -75.42762 7035 ft 9 kts 66°
2026-05-09 23:24 6.16972 -75.42698 7038 ft 13 kts 44°
2026-05-09 23:24 6.17038 -75.42617 7043 ft 16 kts 79°
2026-05-09 23:24 6.16957 -75.42545 7047 ft 18 kts 147°
2026-05-09 23:24 6.16831 -75.42485 7048 ft 23 kts 170°
2026-05-09 23:25 6.16649 -75.42482 7045 ft 29 kts 179°
2026-05-09 23:25 6.16434 -75.42474 7043 ft 33 kts 176°
2026-05-09 23:25 6.16191 -75.42475 7043 ft 37 kts 181°
2026-05-09 23:25 6.15930 -75.42476 7045 ft 38 kts 180°
2026-05-09 23:26 6.15653 -75.42480 7047 ft 40 kts 179°
2026-05-09 23:26 6.15371 -75.42473 7047 ft 41 kts 180°
2026-05-09 23:26 6.15086 -75.42473 7046 ft 41 kts 180°
2026-05-09 23:26 6.14901 -75.42444 7046 ft 16 kts 122°
2026-05-09 23:27 6.14901 -75.42339 7046 ft 14 kts 45°
2026-05-09 23:27 6.14972 -75.42311 7051 ft 7 kts
2026-05-09 23:27 6.15024 -75.42302 7050 ft 8 kts 358°
2026-05-09 23:27 6.15171 -75.42308 7052 ft 55 kts 358°
2026-05-09 23:28 6.15837 -75.42314 7049 ft 131 kts
2026-05-09 23:28 6.16942 -75.42326 7087 ft 183 kts 358°
2026-05-09 23:28 6.18183 -75.42340 7812 ft 186 kts
2026-05-09 23:28 6.19581 -75.42290 8359 ft 206 kts
2026-05-09 23:29 6.20994 -75.42287 9163 ft 208 kts 359°
2026-05-09 23:29 6.22505 -75.42317 9508 ft 229 kts 358°
2026-05-09 23:29 6.24217 -75.42352 9813 ft 250 kts 359°
2026-05-09 23:29 6.26024 -75.42375 10059 ft 275 kts 359°
2026-05-09 23:30 6.28042 -75.42392 10375 ft 299 kts 359°
2026-05-09 23:30 6.30190 -75.42405 10626 ft 323 kts 359°
2026-05-09 23:30 6.32536 -75.42419 10885 ft 345 kts 359°
2026-05-09 23:30 6.34949 -75.42426 11550 ft 350 kts 360°
2026-05-09 23:31 6.37403 -75.42402 12399 ft 352 kts
2026-05-09 23:31 6.39866 -75.42368 13287 ft 354 kts
2026-05-09 23:31 6.42346 -75.42335 14047 ft 360 kts
2026-05-09 23:31 6.44882 -75.42322 14644 ft 368 kts 359°
2026-05-09 23:32 6.47426 -75.42377 15288 ft 371 kts 358°
2026-05-09 23:32 6.50026 -75.42456 15977 ft 374 kts 358°
2026-05-09 23:32 6.52653 -75.42535 16600 ft 378 kts 358°
2026-05-09 23:32 6.55305 -75.42608 17162 ft 383 kts 358°
2026-05-09 23:33 6.57974 -75.42676 17766 ft 386 kts 358°
2026-05-09 23:33 6.60670 -75.42742 18344 ft 389 kts 358°
2026-05-09 23:33 6.63402 -75.42807 18909 ft 393 kts 358°
2026-05-09 23:33 6.66114 -75.42871 19447 ft 396 kts 358°
2026-05-09 23:34 6.68907 -75.42938 19967 ft 400 kts 358°
2026-05-09 23:34 6.71702 -75.43004 20481 ft 403 kts 358°
2026-05-09 23:34 6.74516 -75.43071 20980 ft 406 kts 358°
2026-05-09 23:34 6.77362 -75.43139 21486 ft 409 kts 358°
2026-05-09 23:35 6.80194 -75.43207 21956 ft 412 kts 358°
2026-05-09 23:35 6.83090 -75.43276 22430 ft 415 kts 358°
2026-05-09 23:35 6.85976 -75.43345 22883 ft 418 kts 358°
2026-05-09 23:35 6.88903 -75.43414 23405 ft 420 kts 358°
2026-05-09 23:36 6.91848 -75.43485 23844 ft 423 kts 358°
2026-05-09 23:36 6.94770 -75.43555 24375 ft 425 kts 358°
2026-05-09 23:36 6.97749 -75.43626 24786 ft 429 kts 358°
2026-05-09 23:36 7.00727 -75.43697 25125 ft 433 kts 358°
2026-05-09 23:37 7.03752 -75.43769 25581 ft 434 kts 358°
2026-05-09 23:37 7.06783 -75.43842 26087 ft 435 kts 358°
2026-05-09 23:37 7.09841 -75.43915 26448 ft 439 kts 358°
2026-05-09 23:37 7.12888 -75.43988 27090 ft 435 kts 358°
2026-05-09 23:38 7.15925 -75.44060 27558 ft 438 kts 358°
2026-05-09 23:38 7.19004 -75.44134 27848 ft 443 kts 358°
2026-05-09 23:38 7.22064 -75.44207 28177 ft 447 kts 358°
2026-05-09 23:38 7.25176 -75.44281 28750 ft 444 kts 358°
2026-05-09 23:39 7.28278 -75.44365 28987 ft 450 kts 356°
2026-05-09 23:39 7.33486 -75.45060 29454 ft 455 kts 351°
2026-05-09 23:39 7.36597 -75.45543 29831 ft 456 kts 351°
2026-05-09 23:40 7.40805 -75.46244 30207 ft 460 kts 350°
2026-05-09 23:40 7.42914 -75.46614 30419 ft 462 kts 349°
2026-05-09 23:40 7.46091 -75.47184 30743 ft 464 kts 349°
2026-05-09 23:40 7.49275 -75.47763 31113 ft 465 kts 349°
2026-05-09 23:41 7.52447 -75.48343 31668 ft 460 kts 349°
2026-05-09 23:41 7.55601 -75.48919 32068 ft 460 kts 349°
2026-05-09 23:41 7.58755 -75.49496 32451 ft 460 kts 349°
2026-05-09 23:41 7.61898 -75.50070 32845 ft 458 kts 349°
2026-05-09 23:42 7.65038 -75.50643 33233 ft 457 kts 349°
2026-05-09 23:42 7.68127 -75.51207 33631 ft 455 kts 349°
2026-05-09 23:42 7.71244 -75.51777 33963 ft 455 kts 349°
2026-05-09 23:42 7.74371 -75.52348 34251 ft 455 kts 349°
2026-05-09 23:43 7.77498 -75.52918 34597 ft 454 kts 349°
2026-05-09 23:43 7.80571 -75.53480 34933 ft 452 kts 349°
2026-05-09 23:43 7.83664 -75.54045 35233 ft 451 kts 349°
2026-05-09 23:43 7.86755 -75.54611 35516 ft 451 kts 349°
2026-05-09 23:44 7.89851 -75.55177 35788 ft 450 kts 349°
2026-05-09 23:44 7.92940 -75.55742 36040 ft 450 kts 349°
2026-05-09 23:44 7.96021 -75.56305 36309 ft 449 kts 349°
2026-05-09 23:45 8.02187 -75.57433 36733 ft 449 kts 349°
2026-05-09 23:45 8.05261 -75.57995 36940 ft 449 kts 349°
2026-05-09 23:45 8.08325 -75.58556 37136 ft 449 kts 349°
2026-05-09 23:45 8.11407 -75.59120 37329 ft 449 kts 349°
2026-05-09 23:46 8.14494 -75.59685 37520 ft 449 kts 349°
2026-05-09 23:46 8.17534 -75.60241 37699 ft 449 kts 349°
2026-05-09 23:46 8.20624 -75.60807 37881 ft 449 kts 349°
2026-05-09 23:46 8.23700 -75.61370 38043 ft 449 kts 349°
2026-05-09 23:47 8.26787 -75.61936 38208 ft 449 kts 349°
2026-05-09 23:47 8.29866 -75.62500 38366 ft 449 kts 349°
2026-05-09 23:47 8.32948 -75.63064 38513 ft 449 kts 349°
2026-05-09 23:47 8.36031 -75.63629 38657 ft 449 kts 349°
2026-05-09 23:48 8.39108 -75.64193 38797 ft 449 kts 349°
2026-05-09 23:48 8.42162 -75.64753 38929 ft 450 kts 349°
2026-05-09 23:49 8.51399 -75.66447 38993 ft 449 kts 349°
2026-05-09 23:49 8.57536 -75.67573 39004 ft 449 kts 349°
2026-05-09 23:50 8.63711 -75.68706 39000 ft 448 kts 349°
2026-05-09 23:50 8.69835 -75.69830 39006 ft 449 kts 349°
2026-05-09 23:51 8.75972 -75.70957 39008 ft 449 kts 349°
2026-05-09 23:51 8.82132 -75.72088 39009 ft 449 kts 349°
2026-05-09 23:52 8.88293 -75.73220 38999 ft 449 kts 349°
2026-05-09 23:52 8.94430 -75.74348 39009 ft 449 kts 349°
2026-05-09 23:53 9.00582 -75.75479 39004 ft 449 kts 349°
2026-05-09 23:53 9.06747 -75.76613 39007 ft 449 kts 349°
2026-05-09 23:54 9.12876 -75.77741 39004 ft 448 kts 349°
2026-05-09 23:54 9.19019 -75.78872 39006 ft 448 kts 349°
2026-05-09 23:55 9.25168 -75.80004 39002 ft 448 kts 349°
2026-05-09 23:55 9.31286 -75.81131 38993 ft 448 kts 349°
2026-05-09 23:56 9.37435 -75.82264 38994 ft 448 kts 349°
2026-05-09 23:56 9.43537 -75.83388 39002 ft 448 kts 349°
2026-05-09 23:57 9.49681 -75.84521 39002 ft 448 kts 349°
2026-05-09 23:57 9.55825 -75.85655 38997 ft 448 kts 349°
2026-05-09 23:58 9.61943 -75.86783 38997 ft 448 kts 349°
2026-05-09 23:58 9.68124 -75.87924 39001 ft 448 kts 349°
2026-05-09 23:59 9.74236 -75.89053 38998 ft 448 kts 349°
2026-05-09 23:59 9.80352 -75.90183 39000 ft 448 kts 349°
2026-05-10 00:00 9.86518 -75.91322 39001 ft 448 kts 349°
2026-05-10 00:00 9.92624 -75.92451 39004 ft 448 kts 349°
2026-05-10 00:01 9.98772 -75.93588 39004 ft 448 kts 349°
2026-05-10 00:01 10.04882 -75.94719 39005 ft 448 kts 349°
2026-05-10 00:02 10.11040 -75.95858 39002 ft 448 kts 349°
2026-05-10 00:02 10.17142 -75.96988 39006 ft 448 kts 349°
2026-05-10 00:03 10.23297 -75.98128 39000 ft 448 kts 349°
2026-05-10 00:03 10.29442 -75.99267 39006 ft 448 kts 349°
2026-05-10 00:04 10.35590 -76.00406 39006 ft 448 kts 349°
2026-05-10 00:04 10.41703 -76.01540 38992 ft 448 kts 349°
2026-05-10 00:05 10.47846 -76.02680 39003 ft 448 kts 349°
2026-05-10 00:05 10.53957 -76.03814 39002 ft 448 kts 349°
2026-05-10 00:06 10.60104 -76.04955 39002 ft 448 kts 349°
2026-05-10 00:06 10.66253 -76.06097 39005 ft 448 kts 349°
2026-05-10 00:07 10.72404 -76.07240 38998 ft 448 kts 349°
2026-05-10 00:07 10.78502 -76.08374 39004 ft 448 kts 349°
2026-05-10 00:08 10.84644 -76.09516 39001 ft 448 kts 349°
2026-05-10 00:08 10.90775 -76.10657 39003 ft 448 kts 349°
2026-05-10 00:09 10.96893 -76.11796 39000 ft 448 kts 349°
2026-05-10 00:09 11.03046 -76.12941 38992 ft 448 kts 349°
2026-05-10 00:10 11.09157 -76.14080 39003 ft 448 kts 349°
2026-05-10 00:10 11.15310 -76.15226 39000 ft 448 kts 349°
2026-05-10 00:11 11.21458 -76.16373 38995 ft 448 kts 349°
2026-05-10 00:11 11.27565 -76.17512 39003 ft 448 kts 349°
2026-05-10 00:12 11.33717 -76.18660 39001 ft 448 kts 349°
2026-05-10 00:12 11.39826 -76.19800 39004 ft 448 kts 349°
2026-05-10 00:13 11.45967 -76.20947 39005 ft 448 kts 349°
2026-05-10 00:13 11.52084 -76.22090 39005 ft 448 kts 349°
2026-05-10 00:14 11.58223 -76.23238 38997 ft 448 kts 349°
2026-05-10 00:14 11.64364 -76.24386 38998 ft 448 kts 349°
2026-05-10 00:15 11.70484 -76.25531 38993 ft 448 kts 349°
2026-05-10 00:15 11.76618 -76.26679 39005 ft 448 kts 349°
2026-05-10 00:16 11.82765 -76.27830 39001 ft 448 kts 349°
2026-05-10 00:16 11.87876 -76.28788 39003 ft 448 kts 349°
2026-05-10 00:17 11.94008 -76.29937 39005 ft 448 kts 349°
2026-05-10 00:17 12.00134 -76.31086 38995 ft 448 kts 349°
2026-05-10 00:18 12.07278 -76.32426 38999 ft 448 kts 349°
2026-05-10 00:18 12.12389 -76.33386 39005 ft 448 kts 349°
2026-05-10 00:19 12.18533 -76.34539 39002 ft 448 kts 349°
2026-05-10 00:19 12.24671 -76.35692 39003 ft 448 kts 349°
2026-05-10 00:20 12.30782 -76.36841 39005 ft 448 kts 349°
2026-05-10 00:20 12.36931 -76.37997 38995 ft 448 kts 349°
2026-05-10 00:21 12.43032 -76.39145 39004 ft 448 kts 349°
2026-05-10 00:21 12.49182 -76.40303 38997 ft 448 kts 349°
2026-05-10 00:22 12.55320 -76.41459 38993 ft 448 kts 349°
2026-05-10 00:22 12.61458 -76.42615 39004 ft 448 kts 349°
2026-05-10 00:23 12.67569 -76.43767 39005 ft 448 kts 349°
2026-05-10 00:23 12.73718 -76.44926 39004 ft 448 kts 349°
2026-05-10 00:24 12.79820 -76.46078 38998 ft 448 kts 349°
2026-05-10 00:24 12.85961 -76.47237 38998 ft 448 kts 349°
2026-05-10 00:25 12.92070 -76.48391 39002 ft 448 kts 349°
2026-05-10 00:25 12.98212 -76.49551 38998 ft 448 kts 349°
2026-05-10 00:26 13.04354 -76.50712 38998 ft 448 kts 349°
2026-05-10 00:26 13.10474 -76.51870 39000 ft 448 kts 349°
2026-05-10 00:27 13.16587 -76.53027 39003 ft 448 kts 349°
2026-05-10 00:27 13.22731 -76.54190 38995 ft 448 kts 349°
2026-05-10 00:28 13.28882 -76.55356 39006 ft 448 kts 349°
2026-05-10 00:28 13.35026 -76.56520 38994 ft 448 kts 349°
2026-05-10 00:29 13.41163 -76.57684 38997 ft 448 kts 349°
2026-05-10 00:29 13.47281 -76.58845 38993 ft 448 kts 349°
2026-05-10 00:30 13.53394 -76.60005 39005 ft 448 kts 349°
2026-05-10 00:30 13.59533 -76.61171 39005 ft 448 kts 349°
2026-05-10 00:31 13.65665 -76.62337 38992 ft 448 kts 349°
2026-05-10 00:31 13.71792 -76.63502 38999 ft 448 kts 349°
2026-05-10 00:32 13.77931 -76.64669 38991 ft 448 kts 349°
2026-05-10 00:32 13.84030 -76.65830 38998 ft 448 kts 349°
2026-05-10 00:33 13.90182 -76.67002 39000 ft 448 kts 349°
2026-05-10 00:33 13.96322 -76.68172 39003 ft 448 kts 349°
2026-05-10 00:34 14.02432 -76.69337 39005 ft 448 kts 349°
2026-05-10 00:34 14.08544 -76.70503 39004 ft 448 kts 349°
2026-05-10 00:35 14.14678 -76.71673 39002 ft 448 kts 349°
2026-05-10 00:35 14.20821 -76.72846 39004 ft 448 kts 349°
2026-05-10 00:36 14.26972 -76.74022 38998 ft 448 kts 349°
2026-05-10 00:36 14.33071 -76.75188 39000 ft 448 kts 349°
2026-05-10 00:37 14.39215 -76.76363 38996 ft 448 kts 349°
2026-05-10 00:37 14.45352 -76.77537 39003 ft 448 kts 349°
2026-05-10 00:38 14.51486 -76.78712 39003 ft 448 kts 349°
2026-05-10 00:38 14.57591 -76.79882 39005 ft 448 kts 349°
2026-05-10 00:39 14.63735 -76.81059 39006 ft 448 kts 349°
2026-05-10 00:39 14.69877 -76.82237 39001 ft 448 kts 349°
2026-05-10 00:40 14.75982 -76.83409 39001 ft 448 kts 349°
2026-05-10 00:40 14.82118 -76.84587 38999 ft 448 kts 349°
2026-05-10 00:41 14.88224 -76.85760 39003 ft 448 kts 349°
2026-05-10 00:41 14.94363 -76.86940 39005 ft 448 kts 349°
2026-05-10 00:42 15.03606 -76.88426 38994 ft 448 kts
2026-05-10 00:42 15.06663 -76.88044 38994 ft 447 kts 14°
2026-05-10 00:42 15.09630 -76.86957 38986 ft 447 kts 27°
2026-05-10 00:43 15.12224 -76.85275 38982 ft 447 kts 39°
2026-05-10 00:43 15.14578 -76.83169 38982 ft 447 kts 43°
2026-05-10 00:43 15.19106 -76.78728 38986 ft 448 kts 44°
2026-05-10 00:44 15.23607 -76.74255 38992 ft 448 kts 44°
2026-05-10 00:44 15.28086 -76.69800 38989 ft 449 kts 44°
2026-05-10 00:45 15.32603 -76.65307 38997 ft 450 kts 44°
2026-05-10 00:45 15.37115 -76.60817 39003 ft 450 kts 44°
2026-05-10 00:46 15.41643 -76.56310 39004 ft 451 kts 44°
2026-05-10 00:46 15.46172 -76.51802 39001 ft 451 kts 44°
2026-05-10 00:47 15.50700 -76.47294 39010 ft 452 kts 44°
2026-05-10 00:47 15.55195 -76.42817 38998 ft 449 kts 44°
2026-05-10 00:48 15.59705 -76.38325 38996 ft 450 kts 44°
2026-05-10 00:48 15.64228 -76.33820 38992 ft 450 kts 44°
2026-05-10 00:49 15.68745 -76.29320 39006 ft 450 kts 44°
2026-05-10 00:49 15.73247 -76.24835 39004 ft 450 kts 44°
2026-05-10 00:50 15.77762 -76.20337 38994 ft 450 kts 44°
2026-05-10 00:50 15.82279 -76.15836 39001 ft 450 kts 44°
2026-05-10 00:51 15.86804 -76.11326 38999 ft 450 kts 44°
2026-05-10 00:51 15.91323 -76.06822 39002 ft 450 kts 44°
2026-05-10 00:52 15.95812 -76.02347 39001 ft 450 kts 44°
2026-05-10 00:52 16.00336 -75.97836 39007 ft 450 kts 44°
2026-05-10 00:53 16.04858 -75.93328 39003 ft 450 kts 44°
2026-05-10 00:53 16.09351 -75.88846 39001 ft 450 kts 44°
2026-05-10 00:54 16.13880 -75.84328 39002 ft 450 kts 44°
2026-05-10 00:54 16.18402 -75.79816 39007 ft 450 kts 44°
2026-05-10 00:55 16.22901 -75.75327 38995 ft 450 kts 44°
2026-05-10 00:55 16.27428 -75.70808 39001 ft 450 kts 44°
2026-05-10 00:56 16.32052 -75.66437 39004 ft 449 kts 34°
2026-05-10 00:56 16.34781 -75.64860 38990 ft 448 kts 21°
2026-05-10 00:56 16.37726 -75.63947 38990 ft 447 kts
2026-05-10 00:57 16.43923 -75.63740 38985 ft 446 kts 357°
2026-05-10 00:57 16.50140 -75.64027 38986 ft 447 kts 357°
2026-05-10 00:58 16.56356 -75.64222 38994 ft 447 kts 358°
2026-05-10 00:58 16.62584 -75.64365 38995 ft 448 kts 358°
2026-05-10 00:59 16.68835 -75.64501 38999 ft 448 kts 358°
2026-05-10 00:59 16.75076 -75.64638 39008 ft 449 kts 358°
2026-05-10 01:00 16.81294 -75.64775 39005 ft 449 kts 358°
2026-05-10 01:00 16.87546 -75.64913 39009 ft 450 kts 358°
2026-05-10 01:01 16.93805 -75.65052 39015 ft 450 kts 358°
2026-05-10 01:01 17.00050 -75.65190 39012 ft 450 kts 358°
2026-05-10 01:02 17.06282 -75.65327 39015 ft 450 kts 358°
2026-05-10 01:02 17.11534 -75.65443 39018 ft 450 kts 358°
2026-05-10 01:03 17.17802 -75.65582 39007 ft 450 kts 358°
2026-05-10 01:03 17.24064 -75.65720 39002 ft 449 kts 358°
2026-05-10 01:04 17.30327 -75.65859 39014 ft 449 kts 358°
2026-05-10 01:04 17.36581 -75.65998 39011 ft 449 kts 358°
2026-05-10 01:05 17.42810 -75.66136 39007 ft 448 kts 358°
2026-05-10 01:05 17.49027 -75.66274 38997 ft 448 kts 358°
2026-05-10 01:06 17.55271 -75.66412 39002 ft 448 kts 358°
2026-05-10 01:06 17.61514 -75.66551 38999 ft 448 kts 358°
2026-05-10 01:07 17.67714 -75.66689 38992 ft 447 kts 358°
2026-05-10 01:07 17.73944 -75.66828 38994 ft 447 kts 358°
2026-05-10 01:08 17.80154 -75.66967 38990 ft 447 kts 358°
2026-05-10 01:08 17.86376 -75.67106 38990 ft 447 kts 358°
2026-05-10 01:09 17.92607 -75.67245 38996 ft 447 kts 358°
2026-05-10 01:09 17.98772 -75.67832 38996 ft 446 kts 344°
2026-05-10 01:10 18.04542 -75.70300 38991 ft 446 kts 335°
2026-05-10 01:10 18.10156 -75.73055 38991 ft 446 kts 334°
2026-05-10 01:11 18.15773 -75.75856 38998 ft 447 kts 334°
2026-05-10 01:11 18.21376 -75.78652 39001 ft 447 kts 334°
2026-05-10 01:12 18.26999 -75.81458 39004 ft 448 kts 334°
2026-05-10 01:12 18.32621 -75.84264 39007 ft 448 kts 334°
2026-05-10 01:13 18.38274 -75.87088 39006 ft 448 kts 334°
2026-05-10 01:13 18.43898 -75.89901 39006 ft 449 kts 334°
2026-05-10 01:14 18.49545 -75.92727 39005 ft 449 kts 334°
2026-05-10 01:14 18.55149 -75.95533 39009 ft 449 kts 334°
2026-05-10 01:15 18.60817 -75.98374 39014 ft 449 kts 334°
2026-05-10 01:15 18.66430 -76.01190 39011 ft 449 kts 334°
2026-05-10 01:16 18.72085 -76.04028 39012 ft 449 kts 334°
2026-05-10 01:16 18.77719 -76.06858 39011 ft 448 kts 334°
2026-05-10 01:17 18.83334 -76.09681 39003 ft 448 kts 334°
2026-05-10 01:17 18.88934 -76.12498 39002 ft 448 kts 334°
2026-05-10 01:18 18.94566 -76.15334 38999 ft 447 kts 334°
2026-05-10 01:18 19.00207 -76.18176 39003 ft 447 kts 334°
2026-05-10 01:19 19.05799 -76.20995 38997 ft 447 kts 334°
2026-05-10 01:19 19.11423 -76.23833 38997 ft 447 kts 334°
2026-05-10 01:20 19.17016 -76.26658 38995 ft 447 kts 334°
2026-05-10 01:20 19.22628 -76.29493 38995 ft 447 kts 334°
2026-05-10 01:21 19.28240 -76.32332 38995 ft 447 kts 334°
2026-05-10 01:21 19.33845 -76.35169 38994 ft 447 kts 334°
2026-05-10 01:22 19.39429 -76.37997 38990 ft 447 kts 334°
2026-05-10 01:22 19.45033 -76.40838 39000 ft 447 kts 334°
2026-05-10 01:23 19.50659 -76.43691 38994 ft 447 kts 334°
2026-05-10 01:23 19.56269 -76.46540 39003 ft 447 kts 334°
2026-05-10 01:24 19.61879 -76.49390 39002 ft 447 kts 334°
2026-05-10 01:24 19.67441 -76.52218 39000 ft 448 kts 334°
2026-05-10 01:25 19.73062 -76.55078 39006 ft 448 kts 334°
2026-05-10 01:25 19.78691 -76.57945 38997 ft 448 kts 334°
2026-05-10 01:26 19.84293 -76.60800 39007 ft 448 kts 334°
2026-05-10 01:26 19.89897 -76.63659 39005 ft 448 kts 334°
2026-05-10 01:27 19.95524 -76.66531 39008 ft 448 kts 334°
2026-05-10 01:27 20.01142 -76.69401 39002 ft 450 kts 334°
2026-05-10 01:28 20.06853 -76.72321 38998 ft 455 kts 334°
2026-05-10 01:28 20.12575 -76.75249 38997 ft 449 kts 334°
2026-05-10 01:29 20.18193 -76.78126 39002 ft 448 kts 334°
2026-05-10 01:29 20.23823 -76.81012 39000 ft 448 kts 334°
2026-05-10 01:30 20.29409 -76.83877 38998 ft 448 kts 334°
2026-05-10 01:30 20.35019 -76.86756 39002 ft 448 kts 334°
2026-05-10 01:31 20.40633 -76.89641 39003 ft 448 kts 334°
2026-05-10 01:31 20.46254 -76.92531 39002 ft 448 kts 334°
2026-05-10 01:32 20.51840 -76.95406 39006 ft 448 kts 334°
2026-05-10 01:32 20.57452 -76.98296 38997 ft 448 kts 334°
2026-05-10 01:33 20.63072 -77.01193 39006 ft 448 kts 334°
2026-05-10 01:33 20.68677 -77.04084 39000 ft 448 kts 334°
2026-05-10 01:34 20.74279 -77.06976 39001 ft 448 kts 334°
2026-05-10 01:34 20.79891 -77.09876 39001 ft 448 kts 334°
2026-05-10 01:35 20.85501 -77.12778 38998 ft 448 kts 334°
2026-05-10 01:35 20.91109 -77.15680 39004 ft 447 kts 334°
2026-05-10 01:36 20.96685 -77.18569 39003 ft 447 kts 334°
2026-05-10 01:36 21.02282 -77.21470 38998 ft 448 kts 334°
2026-05-10 01:37 21.07891 -77.24381 39000 ft 447 kts 334°
2026-05-10 01:37 21.13506 -77.27297 38998 ft 448 kts 334°
2026-05-10 01:38 21.19099 -77.30204 39000 ft 448 kts 334°
2026-05-10 01:38 21.24719 -77.33127 38993 ft 448 kts 334°
2026-05-10 01:39 21.30337 -77.36052 39005 ft 448 kts 334°
2026-05-10 01:39 21.35944 -77.38974 39002 ft 448 kts 334°
2026-05-10 01:40 21.41517 -77.41881 39008 ft 448 kts 334°
2026-05-10 01:40 21.47144 -77.44818 38998 ft 448 kts 334°
2026-05-10 01:41 21.52763 -77.47754 39006 ft 448 kts 334°
2026-05-10 01:41 21.58352 -77.50676 39008 ft 448 kts 334°
2026-05-10 01:42 21.63965 -77.53613 39007 ft 448 kts 334°
2026-05-10 01:42 21.69573 -77.56551 39005 ft 448 kts 334°